Glenavy, New Zealand
Current Conditions -  °F | °C
As of 7:00 PM on Sunday 23 Nov 2014 (Local Time) from NZCH Reporting Station
Clear Clear  
Wind Chill: 55°   Ceiling: Unl
Heat Index: 55°   Visibility: 6mi
Dew Point: 48°   Wind: 17mph
Humidity: 77%   Direction: 80°E
Pressure: 29.88"   Gusts: NA
Location:  44.92°S, 171.1°E
Report Text: NZCH 230700Z AUTO 08015KT 9999 NCD 13/09 Q1012 BECMG FM080030005KT
Loading
Personal Weather Stations






























Interactive Weather Map New forecast layout! Learn more

10-Day Weather Forecast

Advertisements
Track Severe Weather on mobile